When you browse on this site, cookies collect data to enhance your experience and personalize the content and advertising you see.
Visit our Privacy Policy to learn more. By continuing to use the site, you agree to this use of cookies and data.
  • In United Kingdom
  • List of Countries
  • For 7 days
  • Water Temperature
  • Weather Map
  • Weather Widgets
  • user-avatar
    Login

    Hourly Weather Essen

    Today, 5 December, Thursday

    Time Temperature Precipitation Wind Pressure Humidity
    00:00 +3°C° 0 mm 1 mps 757 mmHg 79%
    01:00 +2°C° 0 mm 2 mps 757 mmHg 79%
    02:00 +1°C° 0 mm 2 mps 757 mmHg 80%
    03:00 +1°C° 0 mm 2 mps 756 mmHg 80%
    04:00 +1°C° 0 mm 2 mps 757 mmHg 80%
    05:00 +1°C° 0 mm 2 mps 757 mmHg 80%
    06:00 -1°C° 0 mm 2 mps 757 mmHg 79%
    07:00 +1°C° 0 mm 2 mps 757 mmHg 78%
    08:00 +1°C° 0 mm 2 mps 757 mmHg 78%
    09:00 0°C° 0 mm 3 mps 757 mmHg 77%
    10:00 +1°C° 0 mm 3 mps 757 mmHg 73%
    11:00 +2°C° 0 mm 3 mps 757 mmHg 69%
    12:00 +2°C° 0 mm 3 mps 757 mmHg 63%
    13:00 +2°C° 0 mm 3 mps 757 mmHg 64%
    14:00 +2°C° 0 mm 3 mps 756 mmHg 65%
    15:00 +2°C° 0 mm 3 mps 756 mmHg 66%
    16:00 +1°C° 0 mm 3 mps 756 mmHg 69%
    17:00 +1°C° 0 mm 3 mps 756 mmHg 71%
    18:00 0°C° 0 mm 4 mps 756 mmHg 74%
    19:00 0°C° 0 mm 4 mps 756 mmHg 74%
    20:00 0°C° 0 mm 4 mps 755 mmHg 75%
    21:00 0°C° 0 mm 5 mps 755 mmHg 76%
    22:00 0°C° 0 mm 5 mps 755 mmHg 76%
    23:00 0°C° 0 mm 5 mps 754 mmHg 76%

    Tomorrow, 6 December, Friday

    Time Temperature Precipitation Wind Pressure Humidity
    00:00 0°C° 0 mm 5 mps 754 mmHg 76%
    01:00 +1°C° 0 mm 6 mps 754 mmHg 75%
    02:00 +1°C° 0 mm 6 mps 753 mmHg 74%
    03:00 +1°C° 0 mm 6 mps 752 mmHg 73%
    04:00 +1°C° 0.5 mm 6 mps 752 mmHg 77%
    05:00 +1°C° 0.5 mm 6 mps 752 mmHg 80%
    06:00 +2°C° 0.5 mm 6 mps 752 mmHg 83%
    07:00 +2°C° 1 mm 6 mps 752 mmHg 85%
    08:00 +2°C° 1 mm 6 mps 751 mmHg 87%
    09:00 +2°C° 1 mm 6 mps 751 mmHg 90%
    10:00 +3°C° 1.5 mm 6 mps 750 mmHg 90%
    11:00 +3°C° 1.5 mm 6 mps 750 mmHg 91%
    12:00 +3°C° 1.5 mm 6 mps 750 mmHg 92%
    13:00 +4°C° 0.7 mm 6 mps 749 mmHg 91%
    14:00 +4°C° 0.7 mm 6 mps 748 mmHg 90%
    15:00 +4°C° 0.7 mm 6 mps 748 mmHg 89%
    16:00 +4°C° 1.3 mm 6 mps 747 mmHg 90%
    17:00 +4°C° 1.3 mm 6 mps 747 mmHg 90%
    18:00 +4°C° 1.3 mm 6 mps 747 mmHg 90%
    19:00 +5°C° 1.4 mm 6 mps 746 mmHg 90%
    20:00 +5°C° 1.4 mm 7 mps 746 mmHg 89%
    21:00 +5°C° 1.4 mm 7 mps 745 mmHg 89%
    22:00 +5°C° 0.5 mm 7 mps 745 mmHg 88%
    23:00 +7°C° 0.5 mm 6 mps 745 mmHg 87%

    Day after tomorrow, 7 December, Saturday

    Time Temperature Precipitation Wind Pressure Humidity
    00:00 +7°C° 0.5 mm 6 mps 745 mmHg 85%
    01:00 +6°C° 0.5 mm 7 mps 746 mmHg 85%
    02:00 +6°C° 0.5 mm 7 mps 746 mmHg 86%
    03:00 +6°C° 0.5 mm 7 mps 747 mmHg 86%
    04:00 +6°C° 0.1 mm 7 mps 747 mmHg 86%
    05:00 +7°C° 0.1 mm 6 mps 748 mmHg 86%
    06:00 +7°C° 0.1 mm 5 mps 749 mmHg 86%
    07:00 +7°C° 0 mm 5 mps 749 mmHg 86%
    08:00 +7°C° 0 mm 5 mps 750 mmHg 86%
    09:00 +6°C° 0 mm 5 mps 750 mmHg 86%
    10:00 +7°C° 0 mm 5 mps 750 mmHg 85%
    11:00 +7°C° 0 mm 5 mps 751 mmHg 84%
    12:00 +7°C° 0 mm 5 mps 751 mmHg 83%
    13:00 +7°C° 0 mm 5 mps 751 mmHg 83%
    14:00 +7°C° 0 mm 5 mps 751 mmHg 83%
    15:00 +7°C° 0 mm 5 mps 751 mmHg 83%
    16:00 +7°C° 0 mm 5 mps 751 mmHg 84%
    17:00 +6°C° 0 mm 5 mps 752 mmHg 85%
    18:00 +6°C° 0 mm 4 mps 752 mmHg 85%
    19:00 +6°C° 0 mm 4 mps 752 mmHg 87%
    20:00 +6°C° 0 mm 4 mps 752 mmHg 88%
    21:00 +5°C° 0 mm 4 mps 752 mmHg 89%
    22:00 +5°C° 0 mm 4 mps 752 mmHg 89%
    23:00 +5°C° 0 mm 5 mps 751 mmHg 88%

    8 December, Sunday

    Time Temperature Precipitation Wind Pressure Humidity
    00:00 +5°C° 0 mm 5 mps 751 mmHg 87%
    01:00 +6°C° 0 mm 5 mps 750 mmHg 85%
    02:00 +5°C° 0 mm 6 mps 749 mmHg 82%
    03:00 +5°C° 0 mm 6 mps 748 mmHg 79%
    04:00 +5°C° 0 mm 6 mps 748 mmHg 79%
    05:00 +5°C° 0 mm 7 mps 747 mmHg 79%
    06:00 +5°C° 0 mm 7 mps 746 mmHg 78%
    07:00 +6°C° 0.7 mm 7 mps 745 mmHg 80%
    08:00 +6°C° 0.7 mm 7 mps 745 mmHg 82%
    09:00 +6°C° 0.7 mm 7 mps 744 mmHg 85%
    10:00 +8°C° 0.2 mm 7 mps 744 mmHg 85%
    11:00 +7°C° 0.2 mm 8 mps 744 mmHg 85%
    12:00 +9°C° 0.2 mm 8 mps 743 mmHg 85%
    13:00 +9°C° 0.1 mm 7 mps 743 mmHg 81%
    14:00 +8°C° 0.1 mm 6 mps 743 mmHg 76%
    15:00 +8°C° 0.1 mm 5 mps 743 mmHg 72%
    16:00 +7°C° 0 mm 6 mps 743 mmHg 73%
    17:00 +7°C° 0 mm 6 mps 743 mmHg 74%
    18:00 +6°C° 0 mm 7 mps 742 mmHg 75%
    19:00 +6°C° 0.6 mm 7 mps 742 mmHg 75%
    20:00 +6°C° 0.6 mm 7 mps 742 mmHg 75%
    21:00 +6°C° 0.6 mm 7 mps 741 mmHg 75%
    22:00 +5°C° 0.1 mm 7 mps 741 mmHg 73%
    23:00 +5°C° 0.1 mm 8 mps 741 mmHg 72%

    9 December, Monday

    Time Temperature Precipitation Wind Pressure Humidity
    00:00 +5°C° 0.1 mm 8 mps 741 mmHg 71%
    01:00 +5°C° 0 mm 8 mps 740 mmHg 73%
    02:00 +4°C° 0 mm 8 mps 739 mmHg 75%
    03:00 +3°C° 0 mm 9 mps 738 mmHg 77%
    04:00 +3°C° 0.3 mm 9 mps 738 mmHg 77%
    05:00 +5°C° 0.3 mm 8 mps 737 mmHg 77%
    06:00 +5°C° 0.3 mm 8 mps 736 mmHg 76%
    07:00 +4°C° 0.9 mm 8 mps 736 mmHg 79%
    08:00 +4°C° 0.9 mm 8 mps 736 mmHg 83%
    09:00 +4°C° 0.9 mm 8 mps 736 mmHg 86%
    10:00 +4°C° 0.8 mm 7 mps 736 mmHg 87%
    11:00 +4°C° 0.8 mm 7 mps 736 mmHg 88%
    12:00 +4°C° 0.8 mm 6 mps 737 mmHg 89%
    13:00 +5°C° 0.3 mm 7 mps 738 mmHg 83%
    14:00 +5°C° 0.3 mm 7 mps 740 mmHg 78%
    15:00 +6°C° 0.3 mm 8 mps 741 mmHg 72%
    16:00 +6°C° 0.2 mm 8 mps 743 mmHg 72%
    17:00 +5°C° 0.2 mm 8 mps 744 mmHg 72%
    18:00 +5°C° 0.2 mm 9 mps 746 mmHg 71%
    19:00 +5°C° 0.1 mm 9 mps 747 mmHg 71%
    20:00 +3°C° 0.1 mm 9 mps 748 mmHg 70%
    21:00 +3°C° 0.1 mm 9 mps 749 mmHg 70%
    22:00 +4°C° 0 mm 8 mps 750 mmHg 70%
    23:00 +4°C° 0 mm 7 mps 752 mmHg 69%

    10 December, Tuesday

    Time Temperature Precipitation Wind Pressure Humidity
    00:00 +3°C° 0 mm 5 mps 753 mmHg 69%
    01:00 +3°C° 0 mm 5 mps 753 mmHg 71%
    02:00 +3°C° 0 mm 4 mps 754 mmHg 72%
    03:00 +3°C° 0 mm 3 mps 755 mmHg 74%
    04:00 +3°C° 0 mm 3 mps 755 mmHg 77%
    05:00 +2°C° 0 mm 3 mps 755 mmHg 79%
    06:00 +2°C° 0 mm 3 mps 755 mmHg 82%
    07:00 +2°C° 0 mm 3 mps 755 mmHg 81%
    08:00 +3°C° 0 mm 3 mps 755 mmHg 81%
    09:00 +3°C° 0 mm 4 mps 755 mmHg 80%
    10:00 +3°C° 0.2 mm 4 mps 754 mmHg 82%
    11:00 +3°C° 0.2 mm 5 mps 753 mmHg 84%
    12:00 +3°C° 0.2 mm 6 mps 752 mmHg 85%
    13:00 +3°C° 1.1 mm 6 mps 751 mmHg 86%
    14:00 +4°C° 1.1 mm 6 mps 749 mmHg 87%
    15:00 +4°C° 1.1 mm 7 mps 748 mmHg 88%
    16:00 +5°C° 0.9 mm 7 mps 747 mmHg 86%
    17:00 +6°C° 0.9 mm 8 mps 745 mmHg 85%
    18:00 +6°C° 0.9 mm 8 mps 744 mmHg 83%
    19:00 +7°C° 0 mm 8 mps 744 mmHg 82%
    20:00 +9°C° 0 mm 8 mps 743 mmHg 81%
    21:00 +10°C° 0 mm 9 mps 742 mmHg 79%
    22:00 +10°C° 0.8 mm 9 mps 742 mmHg 81%
    23:00 +10°C° 0.8 mm 9 mps 741 mmHg 83%
    Show more